GW7367 Weather Reports


Display with metric or nautical units.
time (UTC)temp
F
wind
direction
speed
MPH
gust
MPH
rain 1hr
in
rain 24hr
in
rain mn
in
humidity
%
barometer
mb
20260507062646 55 175 4.0 8.0 0.00 0.00 0.00 83 1023.3
20260507061145 54 198 5.0 9.0 0.00 0.00 0.00 83 1023.3
20260507055641 55 195 3.0 6.0 0.00 0.00 0.00 82 1023.6
20260507054136 55 195 3.0 6.0 0.00 0.00 0.00 82 1023.6
20260507052636 55 200 3.0 6.0 0.00 0.00 0.00 81 1023.6
20260507051132 55 222 3.0 9.0 0.00 0.00 0.00 81 1023.6
20260507045628 55 196 3.0 7.0 0.00 0.00 0.00 80 1023.3
20260507044125 56 195 3.0 6.0 0.00 0.00 0.00 79 1023.3
20260507042620 56 224 3.0 7.0 0.00 0.00 0.00 78 1023.3
20260507035703 57 229 4.0 8.0 0.00 0.00 0.00 75 1023.3
20260507034159 57 229 4.0 8.0 0.00 0.00 0.00 75 1023.3
20260507032658 57 220 4.0 8.0 0.00 0.00 0.00 74 1022.9
20260507031153 57 203 3.0 7.0 0.00 0.00 0.00 72 1022.9
20260507025650 58 198 3.0 7.0 0.00 0.00 0.00 72 1022.9
20260507024148 58 215 3.0 8.0 0.00 0.00 0.00 72 1022.6
20260507022644 58 198 4.0 11.0 0.00 0.00 0.00 71 1022.6
20260507021143 58 191 3.0 8.0 0.00 0.00 0.00 71 1022.6
20260507015642 58 204 4.0 10.0 0.00 0.00 0.00 71 1022.6
20260507014138 58 214 4.0 11.0 0.00 0.00 0.00 71 1022.6
20260507012635 58 233 6.0 11.0 0.00 0.00 0.00 72 1022.6
20260507011131 58 233 8.0 15.0 0.00 0.00 0.00 72 1022.6
20260507005625 58 233 8.0 15.0 0.00 0.00 0.00 72 1022.6
20260507004121 58 217 6.0 13.0 0.00 0.00 0.00 72 1022.9
20260507002621 58 207 5.0 11.0 0.00 0.00 0.00 72 1022.9
20260507001117 57 218 7.0 17.0 0.00 0.00 0.00 72 1022.9
20260506235616 58 220 7.0 17.0 0.00 0.00 0.00 71 1022.9
20260506234116 57 223 8.0 15.0 0.00 0.00 0.00 71 1022.9
20260506232612 58 213 6.0 15.0 0.00 0.00 0.00 70 1022.9
20260506231109 57 219 6.0 13.0 0.00 0.00 0.00 69 1022.9
20260506225604 57 235 10.0 18.0 0.00 0.00 0.00 70 1022.9
20260506224100 57 242 10.0 19.0 0.00 0.00 0.00 69 1022.9
20260506222555 58 247 11.0 18.0 0.00 0.00 0.00 67 1022.9
20260506221053 58 236 9.0 19.0 0.00 0.00 0.00 66 1022.9
20260506215553 58 215 8.0 15.0 0.00 0.00 0.00 66 1022.9
20260506214049 57 227 9.0 15.0 0.00 0.00 0.00 68 1023.3
20260506212547 58 224 8.0 17.0 0.00 0.00 0.00 68 1023.3
20260506211047 58 211 6.0 15.0 0.00 0.00 0.00 68 1023.3
20260506205108 57 244 11.0 18.0 0.00 0.00 0.00 69 1022.9
20260506202103 57 212 6.0 13.0 0.00 0.00 0.00 70 1022.9